[Date Prev][Date Next][Thread Prev][Thread Next] - [Date Index][Thread Index][Author Index]
2 Line ISS Keps 6-29
- Subject: [sarex] 2 Line ISS Keps 6-29
- From: "Dave Larsen PhD" <doc@xxxxxxxxxxx>
- Date: Sun, 29 Jun 2003 04:02:23 -0700
ISS
1 25544U 98067A 03180.13408565 .00014874 00000-0 18642-3 0 1691
2 25544 51.6331 320.1580 0007530 312.1581 39.9715 15.59970960262865
----
Via the sarex mailing list at AMSAT.ORG courtesy of AMSAT-NA.
To unsubscribe, send "unsubscribe sarex" to Majordomo@amsat.org
AMSAT Home